DW4174 Weather Reports


time (UTC)temp
C
wind
direction
speed
KPH
gust
KPH
rain 1hr
cm
rain 24hr
cm
rain mn
cm
humidity
%
barometer
mb
20260901135221 25 0 0.0 0.0 0.00 0.30 0.00 70 1013.8
20260901134321 25 0 0.0 0.0 0.00 0.30 0.00 70 1013.6
20260901133421 25 0 0.0 0.0 0.00 0.30 0.00 71 1013.4
20260901131621 25 70 3.2 6.4 0.00 0.30 0.00 71 1013.0
20260901130721 25 73 3.2 8.0 0.00 0.30 0.00 71 1013.0
20260901125821 25 69 3.2 8.0 0.00 0.30 0.00 70 1013.1
20260901124920 25 75 3.2 6.4 0.00 0.30 0.00 70 1013.2
20260901124021 25 73 1.6 6.4 0.00 0.30 0.00 70 1013.1
20260901122221 25 68 1.6 6.4 0.00 0.30 0.00 69 1013.0
20260901121321 25 66 1.6 6.4 0.00 0.30 0.00 69 1012.9
20260901120420 25 64 1.6 6.4 0.00 0.30 0.00 69 1012.7
20260901115520 25 64 1.6 4.8 0.00 0.30 0.00 69 1012.6
20260901114620 25 59 1.6 6.4 0.00 0.30 0.00 68 1012.6
20260901113720 25 56 0.0 3.2 0.00 0.30 0.00 69 1012.6
20260901112821 25 0 0.0 0.0 0.00 0.30 0.00 70 1012.5
20260901111921 25 0 0.0 0.0 0.00 0.30 0.00 70 1012.5
20260901105220 25 127 1.6 4.8 0.00 0.30 0.00 69 1012.4
20260901104321 25 126 1.6 3.2 0.00 0.30 0.00 68 1012.5
20260901103421 25 126 1.6 4.8 0.00 0.30 0.00 68 1012.6
20260901102520 25 127 0.0 4.8 0.00 0.30 0.00 68 1012.6
20260901101620 25 0 0.0 0.0 0.00 0.30 0.00 69 1012.6
20260901100720 25 0 0.0 0.0 0.00 0.30 0.00 69 1012.6
20260901095820 26 0 0.0 0.0 0.00 0.30 0.00 70 1012.5
20260901094920 25 0 0.0 0.0 0.00 0.30 0.00 70 1012.6
20260901094020 25 0 0.0 0.0 0.00 0.30 0.00 71 1012.6
20260901093120 25 0 0.0 0.0 0.00 0.30 0.00 70 1012.7
20260901092220 26 0 0.0 0.0 0.00 0.30 0.00 70 1012.8
20260901091320 26 0 0.0 0.0 0.00 0.30 0.00 70 1012.8
20260901090420 26 0 0.0 0.0 0.00 0.30 0.00 70 1012.9
20260901085520 26 0 0.0 0.0 0.00 0.30 0.00 69 1012.9
20260901084620 26 0 0.0 0.0 0.00 0.30 0.00 69 1012.8
20260901083720 26 0 0.0 0.0 0.00 0.30 0.00 69 1012.9
20260901082820 26 136 0.0 3.2 0.00 0.30 0.00 68 1012.9
20260901081920 26 0 0.0 0.0 0.00 0.30 0.00 67 1012.8
20260901081020 26 137 1.6 4.8 0.00 0.30 0.00 66 1012.8
20260901080120 26 141 1.6 4.8 0.00 0.30 0.00 66 1012.7
20260901075220 26 136 1.6 14.5 0.00 0.30 0.00 65 1012.7
20260901073420 26 0 0.0 0.0 0.00 0.30 0.00 67 1012.8
20260901072520 26 97 0.0 3.2 0.00 0.30 0.00 67 1012.7
20260901070720 26 108 1.6 9.7 0.00 0.30 0.00 66 1012.7
20260901065820 27 101 1.6 9.7 0.00 0.30 0.30 65 1012.5
20260901064920 27 99 1.6 6.4 0.00 0.30 0.30 64 1012.4
20260901064020 27 110 1.6 9.7 0.00 0.30 0.30 63 1012.3
20260901063120 27 137 1.6 3.2 0.00 0.30 0.30 62 1012.4
20260901062220 27 121 1.6 6.4 0.00 0.30 0.30 61 1012.2
20260901061320 27 114 3.2 8.0 0.00 0.30 0.30 61 1012.3
20260901060420 27 105 3.2 6.4 0.00 0.30 0.30 59 1012.3
20260901055520 27 107 1.6 6.4 0.00 0.30 0.30 58 1012.3
20260901053720 27 119 1.6 3.2 0.00 0.30 0.30 56 1012.3
20260901052820 28 119 1.6 6.4 0.00 0.30 0.30 56 1012.3
20260901051920 28 122 0.0 6.4 0.00 0.30 0.30 55 1012.2
20260901050120 28 129 0.0 4.8 0.00 0.30 0.30 54 1012.2
20260901045220 28 151 3.2 9.7 0.00 0.30 0.30 53 1012.3
20260901044320 28 139 1.6 9.7 0.00 0.30 0.30 53 1012.2
20260901043420 28 127 0.0 6.4 0.00 0.30 0.30 51 1012.2
20260901041620 28 160 3.2 8.0 0.00 0.30 0.30 49 1012.3
20260901035820 29 146 3.2 12.9 0.00 0.30 0.30 51 1011.9
20260901034920 29 153 3.2 6.4 0.00 0.30 0.30 51 1012.0
20260901033120 30 160 3.2 11.3 0.00 0.30 0.30 51 1011.8
20260901032220 30 181 3.2 9.7 0.00 0.30 0.30 48 1011.8
20260901031320 30 183 3.2 6.4 0.00 0.30 0.30 48 1011.6
20260901030420 30 177 3.2 9.7 0.00 0.30 0.30 47 1011.3
20260901025520 30 197 1.6 6.4 0.00 0.30 0.30 47 1011.3
20260901024620 29 228 0.0 3.2 0.00 0.30 0.30 48 1011.1
20260901023720 29 229 0.0 1.6 0.00 0.30 0.30 47 1011.1
20260901022820 30 229 1.6 3.2 0.00 0.30 0.30 47 1011.1
20260901021020 30 227 0.0 4.8 0.00 0.30 0.30 47 1010.9
20260901020120 30 0 0.0 0.0 0.00 0.30 0.30 46 1010.6
20260901014320 30 181 0.0 3.2 0.00 0.30 0.30 45 1010.7
20260901013420 30 181 0.0 3.2 0.00 0.30 0.30 46 1010.6
20260901012520 30 181 1.6 4.8 0.00 0.30 0.30 46 1010.5
20260901010720 31 189 1.6 8.0 0.00 0.30 0.30 45 1010.8
20260901005820 30 131 1.6 4.8 0.00 0.30 0.30 46 1010.8
20260901004920 31 122 1.6 12.9 0.00 0.30 0.30 44 1010.8
20260901004020 31 148 3.2 9.7 0.00 0.30 0.30 44 1010.8
20260901003120 31 134 3.2 9.7 0.00 0.30 0.30 44 1010.9
20260901000420 31 109 4.8 11.3 0.00 0.30 0.30 43 1011.2
20260831235519 31 110 4.8 12.9 0.00 0.30 0.30 42 1011.1
20260831234619 31 103 4.8 11.3 0.00 0.30 0.30 45 1011.2
20260831233719 31 115 4.8 12.9 0.00 0.30 0.30 46 1011.4
20260831232819 31 135 6.4 11.3 0.00 0.30 0.30 46 1011.3
20260831230120 31 123 8.0 19.3 0.00 0.30 0.30 48 1011.4
20260831225219 31 124 8.0 17.7 0.00 0.30 0.30 48 1011.7
20260831224320 31 132 8.0 19.3 0.00 0.30 0.30 48 1011.7
20260831223420 31 104 8.0 19.3 0.00 0.30 0.30 48 1011.7
20260831222520 31 105 6.4 19.3 0.00 0.30 0.30 49 1011.9
20260831221619 31 130 6.4 16.1 0.00 0.30 0.30 52 1012.1
20260831220719 31 110 8.0 16.1 0.00 0.30 0.30 52 1012.5
20260831215819 31 130 8.0 19.3 0.00 0.30 0.30 52 1012.9
20260831214020 30 118 8.0 22.5 0.00 0.30 0.30 52 1013.4
20260831213119 30 130 6.4 14.5 0.00 0.30 0.30 52 1013.6
20260831212219 30 117 8.0 17.7 0.00 0.30 0.30 52 1013.7
20260831211319 30 106 9.7 22.5 0.00 0.30 0.30 54 1013.9
20260831205519 30 122 9.7 19.3 0.00 0.30 0.30 54 1014.2
20260831204619 29 109 11.3 22.5 0.00 0.30 0.30 55 1014.4
20260831202819 29 139 9.7 29.0 0.00 0.30 0.30 59 1014.6
20260831201919 29 143 8.0 24.1 0.00 0.30 0.30 60 1014.7
20260831201019 28 119 9.7 19.3 0.00 0.30 0.30 62 1014.6
20260831200119 27 133 9.7 22.5 0.00 0.30 0.30 65 1014.7
20260831195219 27 140 8.0 22.5 0.00 0.30 0.30 65 1014.7
20260831194319 27 139 6.4 22.5 0.00 0.30 0.30 65 1014.6
20260831193419 27 131 8.0 19.3 0.00 0.30 0.30 67 1014.8
20260831191619 26 112 6.4 22.5 0.00 0.30 0.30 71 1015.0
20260831190719 26 124 6.4 16.1 0.00 0.30 0.30 71 1014.9
20260831185819 26 144 6.4 17.7 0.00 0.30 0.30 70 1015.0
20260831184919 26 154 8.0 16.1 0.00 0.30 0.30 70 1015.3
20260831183119 26 153 8.0 17.7 0.00 0.30 0.30 75 1014.9
20260831182219 26 149 4.8 20.9 0.00 0.30 0.30 76 1014.8
20260831181319 26 123 6.4 14.5 0.00 0.30 0.30 78 1014.9
20260831180419 25 104 6.4 14.5 0.00 0.30 0.30 82 1015.0
20260831175519 25 96 6.4 9.7 0.00 0.30 0.30 84 1015.3
20260831174619 25 86 8.0 14.5 0.00 0.30 0.30 84 1015.5
20260831173719 25 75 4.8 14.5 0.00 0.30 0.30 84 1015.6
20260831172819 25 60 4.8 12.9 0.00 0.30 0.30 84 1015.9
20260831171919 25 67 6.4 12.9 0.00 0.30 0.30 84 1015.6
20260831171019 24 70 6.4 11.3 0.03 0.30 0.30 84 1015.3
20260831170119 24 78 8.0 14.5 0.05 0.30 0.30 84 1015.2
20260831165219 23 90 9.7 17.7 0.08 0.30 0.30 85 1015.3
20260831164319 24 80 8.0 16.1 0.13 0.30 0.30 85 1015.3
20260831162519 23 63 8.0 19.3 0.23 0.30 0.30 85 1015.1
20260831161619 23 65 8.0 16.1 0.25 0.30 0.30 85 1015.1
20260831160719 23 60 9.7 17.7 0.25 0.28 0.28 85 1015.1
20260831155819 23 85 12.9 20.9 0.23 0.25 0.25 85 1015.0
20260831154919 23 89 9.7 20.9 0.18 0.20 0.20 84 1014.8
20260831154019 24 88 6.4 14.5 0.13 0.15 0.15 84 1015.2
20260831153119 24 102 4.8 12.9 0.08 0.10 0.10 83 1015.4
20260831152219 24 125 1.6 11.3 0.05 0.05 0.08 81 1015.4
20260831151319 24 131 4.8 11.3 0.03 0.03 0.03 79 1015.5
20260831150419 24 121 8.0 19.3 0.03 0.03 0.03 78 1015.2
20260831145519 24 123 8.0 19.3 0.03 0.03 0.03 79 1015.0
20260831144619 25 123 4.8 19.3 0.03 0.03 0.03 79 1014.7
20260831143719 25 125 6.4 16.1 0.03 0.03 0.03 78 1014.7
20260831142819 25 118 9.7 17.7 0.00 0.00 0.00 76 1014.5
20260831141919 26 113 12.9 20.9 0.00 0.00 0.00 71 1014.2